Location: The Saddle
(36.8333°N, 80.3417°W)
Time: 13:01:33
(UTC-04:00)

SR - Pass Details

Date: 30 May 2024
Orbit: 580 x 858 km, 66.7° (Epoch: 14 June)

Event Time Altitude Azimuth Distance (km) Brightness Sun altitude
Rises 01:42:49 0° 341° (NNW) 2,831 ? -31.0°
Reaches altitude 10° 01:45:14 10° 350° (N) 1,909 ? -31.0°
Enters shadow 01:47:57 29° 23° (NNE) 1,085 ? -30.9°
